Location: Newark
(17.1333°N, 61.8333°W)
Time: 09:00:58
(UTC+00:00)

Hubble Space Telescope - Visible Passes

Search period start: 17 July 2019 00:00
Search period end: 27 July 2019 00:00
Orbit: 536 x 540 km, 28.5° (Epoch: 16 July)

Date Brightness Start Highest point End Pass type
(mag) Time Alt. Az. Time Alt. Az. Time Alt. Az.
21 Jul 3.2 08:05:35 11° SSE 08:06:02 12° SSE 08:07:28 10° SE visible
22 Jul 3.0 07:55:45 16° SE 07:55:45 16° SE 07:58:03 10° ESE visible
23 Jul 2.8 07:45:53 20° SE 07:45:53 20° SE 07:48:07 10° E visible
23 Jul 0.9 09:21:49 10° WSW 09:25:55 73° NNW 09:30:03 10° ENE visible
24 Jul 2.8 07:35:59 22° ESE 07:35:59 22° ESE 07:37:57 10° E visible
24 Jul 1.2 09:11:22 10° W 09:15:25 55° NNW 09:19:29 10° ENE visible
25 Jul 3.0 07:26:02 21° E 07:26:02 21° E 07:27:39 10° E visible
25 Jul 1.6 09:01:22 12° W 09:04:56 43° NNW 09:08:53 10° NE visible
26 Jul 3.3 07:16:04 18° E 07:16:04 18° E 07:17:16 10° ENE visible
26 Jul 1.9 08:51:24 14° W 08:54:28 34° NNW 08:58:16 10° NE visible
